sat.trackr.live / text

‹ back to catalog

STARLINK-31189

NORAD 58787 · 2024-012A

PAYLOAD ACTIVE UNKNOWN

§ Identity

Operator
Country
US
Launch date
2024-01-15
Launch site
AFETR
Launch vehicle
Mass (kg)
RCS (m²)

Purposes: comms

External: N2YO · Heavens-Above · Gunter

§ Orbital elements

Epoch: 2026-09-20T00:58:20.407008Z

Period
94.27 min
Inclination
43.0006°
Eccentricity
0.0001089
Mean motion
15.27575941 rev/d
Perigee alt
482.3 km
Apogee alt
483.8 km
Semi-major
6,861.2 km
B*
4.8182e-5
RAAN
147.2953°
Arg perigee
264.9936°
Mean anomaly
95.0791°
Rev number
15,096

§ Raw data

STARLINK-311891 58787U 24012A   26263.04051397  .00001064  00000+0  48182-4 0  99992 58787  43.0006 147.2953 0001089 264.9936  95.0791 15.27575941150966

JSON: /api/v1/satellites/58787 · /tle

For live sub-satellite position, see the globe view (requires WebGL).

§ Visibility from observer

Set your observer location to see the next 7 days of passes ≥ 10°. The values pass through the URL so the page stays shareable.

No JS? Fill the form by hand. The geolocation button needs JavaScript.